Weather History for Jordan, MT

Change the Weather History Date:

Monday, October 8, 2012

  Actual Average Record
Temperature  
Mean Temperature 47 °F 48 °F  
Max Temperature 54 °F 62 °F 88 °F (1943)
Min Temperature 40 °F 33 °F 18 °F (1945)
Degree Days  
Heating Degree Days 18 18  
Month to date heating degree days 139 130  
Since 1 July heating degree days 317 456  
Cooling Degree Days 0 0  
Month to date cooling degree days 0 0  
Year to date cooling degree days 728 420  
Moisture  
Dew Point 35 °F    
Average Humidity 65    
Maximum Humidity 86    
Minimum Humidity 44    
Precipitation  
Precipitation 0.01 in 0.03 in 1.15 in (1975)
Month to date precipitation 0.25 0.23  
Year to date precipitation 6.00 11.36  
Snow  
Snow 0.00 in - - ()
Month to date snowfall 0.0  
Since 1 July snowfall 0.0  
Since 1 September snowfall 0.0  
Snow Depth 0.00 in    
Sea Level Pressure  
Sea Level Pressure 29.90 in    
Wind  
Wind Speed 14 mph (NW)    
Max Wind Speed 25 mph    
Max Gust Speed 31 mph    
T = Trace of Precipitation, MM = Missing Value Source: NWS Daily Summary

Daily Weather History Graph

Daily Weather History Graph

Search for Another Location

Airport:

Trip Planner

Search our weather history database for the weather conditions in past years. The results will help you decide how hot, cold, wet, or windy it might be!

Date:

Astronomy

Oct. 08, 2012 Rise Set
Actual Time 7:17 AM MDT 6:32 PM MDT
Civil Twilight 6:46 AM MDT 7:02 PM MDT
Nautical Twilight 6:11 AM MDT 7:38 PM MDT
Astronomical Twilight 5:35 AM MDT 8:13 PM MDT
Moon No Moon Rise 2:48 PM MDT (10/8)
Length of Visible Light 12h 16m
Length of Day
11h 15m
Last Quarter, 46% of the Moon is Illuminated
Oct 8
Last Quarter
Oct 15
New
Oct 21
First Quarter
Oct 29
Full
Nov 6
Last Quarter

Hourly Weather History & Observations

Time (MDT) Temp. Windchill Dew Point Humidity Pressure Visibility Wind Dir Wind Speed Gust Speed Precip Events Conditions
12:48 AM 50.0 °F - 37.9 °F 63% 29.80 in - WNW 9.2 mph - N/A   Unknown
1:48 AM 48.0 °F - 39.0 °F 71% 29.81 in - WNW 10.4 mph - N/A   Unknown
2:48 AM 51.1 °F - 39.0 °F 63% 29.81 in - WNW 10.4 mph - N/A   Unknown
3:48 AM 52.0 °F - 39.9 °F 63% 29.81 in - WNW 10.4 mph - N/A   Unknown
4:48 AM 50.0 °F - 39.9 °F 68% 29.82 in - WNW 8.1 mph - N/A   Unknown
5:48 AM 50.0 °F - 42.1 °F 74% 29.84 in - WNW 11.5 mph - N/A   Unknown
6:48 AM 48.0 °F - 44.1 °F 86% 29.85 in - WNW 11.5 mph - 0.01 in   Unknown
7:48 AM 48.0 °F - 44.1 °F 86% 29.87 in - WNW 8.1 mph - N/A   Unknown
8:48 AM 48.9 °F - 43.0 °F 80% 29.88 in - NW 11.5 mph - N/A   Unknown
9:48 AM 51.1 °F - 42.1 °F 71% 29.88 in - NW 11.5 mph - N/A   Unknown
10:48 AM 52.0 °F - 39.9 °F 63% 29.88 in - NW 21.9 mph 26.5 mph N/A   Unknown
11:48 AM 53.1 °F - 37.0 °F 55% 29.88 in - NW 17.3 mph 25.3 mph N/A   Unknown
12:48 PM 52.0 °F - 35.1 °F 53% 29.90 in - NNW 18.4 mph 26.5 mph N/A   Unknown
1:48 PM 53.1 °F - 34.0 °F 48% 29.88 in - WNW 16.1 mph 23.0 mph N/A   Unknown
2:48 PM 53.1 °F - 34.0 °F 48% 29.88 in - NW 23.0 mph 27.6 mph N/A   Unknown
3:48 PM 52.0 °F - 30.9 °F 45% 29.89 in - NNW 21.9 mph 29.9 mph N/A   Unknown
4:48 PM 48.9 °F - 30.9 °F 50% 29.91 in - NW 21.9 mph 27.6 mph N/A   Unknown
5:48 PM 46.9 °F - 28.9 °F 50% 29.94 in - NW 18.4 mph 24.2 mph N/A   Unknown
6:48 PM 46.0 °F 40.2 °F 28.9 °F 51% 29.96 in - NW 12.7 mph - N/A   Unknown
7:48 PM 45.0 °F 38.5 °F 28.9 °F 53% 29.99 in - NNW 13.8 mph - N/A   Unknown
8:48 PM 44.1 °F 38.6 °F 27.0 °F 51% 30.01 in - NW 10.4 mph - N/A   Unknown
9:48 PM 43.0 °F 36.8 °F 27.0 °F 53% 30.02 in - NW 11.5 mph - N/A   Unknown
10:48 PM 42.1 °F 35.7 °F 28.0 °F 58% 30.03 in - WNW 11.5 mph - N/A   Unknown
11:48 PM 41.0 °F 35.8 °F 28.0 °F 60% 30.04 in - WNW 8.1 mph - N/A   Unknown